Regional Weather Roundup
Issued by NWS

Home | Current Version | Previous Version | Text Only | Print | Product List | Glossary On
Versions: 1 2 3 4 5 6 7 8 9 10 11 12 13 14 15 16 17 18 19 20 21 22 23 24 25 26 27 28 29 30 31 32 33 34 35 36 37 38 39 40 41 42 43 44 45 46 47 48 49 50
000
ASUS44 KLIX 221210
RWRLA
LOUISIANA WEATHER ROUNDUP
NATIONAL WEATHER SERVICE NEW ORLEANS LA
700 AM CDT WED OCT 22 2014

NOTE: "FAIR" INDICATES FEW OR NO CLOUDS BELOW 12,000 FEET WITH NO
      SIGNIFICANT WEATHER AND/OR OBSTRUCTIONS TO VISIBILITY.
      SKY/WX - SKY CONDITION AND SIGNIFICANT WEATHER.
      TMP - AIR TEMPERATURE.    DP   - DEWPOINT TEMPERATURE.
      RH  - RELATIVE HUMIDITY.  PRES - PRESSURE.
      HX  - HEAT INDEX.         WCI  - WIND CHILL INDEX.

*  THESE STATIONS ARE NOT NWS OR FAA STATIONS AND ARE NOT UNDER
   NWS QUALITY CONTROL.

LAZ040-048-061>063-065-066-069-221300-
SOUTHEAST LOUISIANA

CITY           SKY/WX    TMP DP  RH WIND       PRES   REMARKS
N.O. AUDUBON     N/A     62  61  97 MISG        N/A
6HR MIN TEMP:  62; 6HR MAX TEMP:  72;

N.O. INTL ARPT PTCLDY    67  60  78 NE12      30.04S
6HR MIN TEMP:  61; 6HR MAX TEMP:  69;

N.O. LAKEFRONT CLEAR     68  59  73 NE18      30.05R
6HR MIN TEMP:  68; 6HR MAX TEMP:  72; 6HR PCP: TRACE;

N.O. DOWNTOWN* FAIR      66  54  63 NE5       30.05S
6HR MIN TEMP:  66; 6HR MAX TEMP:  70;

SLIDELL        CLEAR     52  50  93 N3        30.06R
6HR MIN TEMP:  52; 6HR MAX TEMP:  56;

BATON ROUGE    CLEAR     58  54  86 NE6       30.07R
6HR MIN TEMP:  55; 6HR MAX TEMP:  62;

BOOTHVILLE     CLEAR     73  60  63 NE9       30.03R
6HR MIN TEMP:  68; 6HR MAX TEMP:  73;

BELLE CHASSE   CLEAR     61  56  83 NE6       30.04R
6HR MIN TEMP:  56; 6HR MAX TEMP:  62;

BOGALUSA*        N/A     53  50  90 N3        30.09S
6HR MIN TEMP:  52; 6HR MAX TEMP:  56;

NEW ROADS*     FAIR      59  55  89 NE6       30.07S
6HR MIN TEMP:  55; 6HR MAX TEMP:  61;

GONZALES*      FAIR      58  58 100 CALM      30.06R
6HR MIN TEMP:  57; 6HR MAX TEMP:  60;

HAMMOND*       CLEAR     59  52  77 NE3       30.08S
HOUMA*         CLEAR     61  59  94 N9        30.04R
PORT FOURCHON* SUNNY     70  64  83 NE8       30.06R

$$

LAZ041-044-053-054-221300-
SOUTHWEST LOUISIANA

CITY           SKY/WX    TMP DP  RH WIND       PRES   REMARKS
LAKE CHARLES   CLEAR     59  57  93 NE8       30.06R
6HR MIN TEMP:  59; 6HR MAX TEMP:  61;

LAFAYETTE      CLEAR     58  57  97 NE3       30.06R
6HR MIN TEMP:  58; 6HR MAX TEMP:  62;

PATTERSON      CLEAR     59  57  94 CALM      30.07R
6HR MIN TEMP:  57; 6HR MAX TEMP:  59;

SALT POINT       N/A     62  59  90 CALM      30.04R
6HR MIN TEMP:  62; 6HR MAX TEMP:  65;

NEW IBERIA     CLEAR     62  58  86 NE8       30.06R
6HR MIN TEMP:  62; 6HR MAX TEMP:  66;

CHENAULT AIRPK CLEAR     59  57  94 CALM      30.06S

$$

LAZ027-028-221300-
CENTRAL LOUISIANA

CITY           SKY/WX    TMP DP  RH WIND       PRES   REMARKS
FORT POLK      PTCLDY    62  59  90 NE3       30.08R
6HR MIN TEMP:  60; 6HR MAX TEMP:  64;

ALEXANDRIA INT CLEAR     58  57  97 CALM      30.08R
6HR MIN TEMP:  56; 6HR MAX TEMP:  64;

ALEXANDRIA     PTCLDY    53  52  96 CALM      30.10R FOG
6HR MIN TEMP:  53; 6HR MAX TEMP:  57;


$$

LAZ001-002-221300-
NORTHWEST LOUISIANA

CITY           SKY/WX    TMP DP  RH WIND       PRES   REMARKS
SHREVEPORT     CLEAR     59  56  89 CALM      30.11R
6HR MIN TEMP:  56; 6HR MAX TEMP:  63;

BARKSDALE AFB  CLEAR     56  53  89 N2        30.12R
6HR MIN TEMP:  56; 6HR MAX TEMP:  60;

DTN SHREVEPORT CLEAR     55  54  96 CALM      30.12R
6HR MIN TEMP:  55; 6HR MAX TEMP:  61;


$$

LAZ014-016-221300-
NORTHEAST LOUISIANA

CITY           SKY/WX    TMP DP  RH WIND       PRES   REMARKS
MONROE         CLEAR     52  50  93 NE5       30.13R
6HR MIN TEMP:  52; 6HR MAX TEMP:  63;

TALLULAH       CLEAR     47  45  93 CALM      30.12R
6HR MIN TEMP:  46; 6HR MAX TEMP:  61;


$$




USA.gov is the U.S. government's official web portal to all federal, state and local government web resources and services.